Wind_Speed
78 78 79 79 78 79 79 79 79 79 80 80 80 80 80 80 81 81 81 81 81 82 81 81 82 82 82 82 82 83 83 83 83 84 84 85 85 86 86 86 87 87 87 88 88 89 89 90 90 91 91 92 93 94 95 95 96 97 98 99 100 101 102 103 104 105 107 108 109 110 110 111 112 113 114 115 116 118 119 121 122 124 126 128 130 132
77 77 77 77 78 78 79 79 79 79 80 80 80 81 81 81 81 81 82 82 82 82 82 82 82 82 82 82 83 83 84 84 84 85 85 86 86 86 87 87 87 88 88 88 89 90 90 91 91 92 92 93 93 94 95 96 97 98 99 100 101 102 103 104 105 106 107 108 109 110 111 111 112 113 115 116 117 119 120 122 124 126 127 129 131 133
77 77 76 77 77 77 77 78 79 79 80 80 81 81 82 82 82 82 82 82 82 82 82 82 82 83 83 83 83 84 84 85 85 85 86 86 87 87 88 88 88 88 89 89 90 90 91 92 92 92 93 93 94 95 96 97 97 98 99 100 101 102 103 105 106 107 108 109 109 110 111 112 113 114 116 117 119 120 122 123 125 127 129 131 132 133
79 78 78 78 77 77 77 78 78 79 80 81 81 82 82 82 82 82 82 82 83 83 83 83 83 84 84 84 84 85 85 85 85 86 86 87 87 88 88 88 88 89 89 90 91 91 92 92 93 93 93 94 95 95 96 97 98 99 100 101 102 103 104 105 106 107 108 109 110 111 112 113 114 115 117 118 120 121 123 125 127 129 130 131 133 133
80 80 80 80 79 79 79 80 80 80 81 82 82 83 83 83 83 84 83 83 83 84 84 84 84 84 85 85 85 85 85 86 86 87 87 87 88 88 88 88 89 89 90 90 91 91 92 92 93 93 94 94 95 96 97 97 98 99 100 101 102 103 104 105 106 107 108 109 110 111 112 114 115 116 118 119 121 123 125 126 128 130 131 132 133 133
80 81 81 81 81 81 82 82 82 82 82 83 83 84 84 84 85 84 84 84 84 85 85 85 84 84 85 85 86 86 86 86 87 87 87 88 88 88 89 89 89 90 90 90 91 91 92 92 93 93 94 94 95 96 97 98 99 99 100 101 103 104 105 106 107 108 109 110 111 112 113 115 116 117 119 121 122 124 126 127 129 130 131 132 132 132
78 79 80 81 82 83 83 84 84 83 83 83 84 85 85 85 85 85 85 85 85 85 85 84 84 84 84 85 86 86 87 87 87 87 87 87 88 88 88 88 88 89 89 90 91 91 92 92 93 93 94 95 96 96 97 98 99 100 101 102 103 104 105 106 107 109 110 111 112 113 114 116 117 118 120 122 124 125 127 128 129 130 131 131 132 132
74 75 76 78 80 82 84 85 85 85 84 84 84 84 85 85 85 85 85 85 85 85 85 85 84 84 85 85 86 86 86 86 86 86 86 87 87 87 87 87 88 89 89 90 91 92 92 93 93 94 95 95 96 97 98 98 99 100 101 102 103 105 106 107 108 109 110 112 113 114 115 116 118 120 121 123 125 126 127 129 130 130 131 131 131 131
71 71 73 75 78 80 82 84 85 85 84 84 84 84 84 84 85 86 86 86 86 86 86 85 85 85 86 86 86 86 86 85 85 85 85 86 86 86 87 87 88 89 90 91 92 93 93 94 94 95 95 96 96 97 98 98 99 100 101 103 104 105 107 108 109 110 111 112 113 115 116 118 119 121 122 124 125 126 128 129 129 130 130 130 130 131
70 70 71 75 78 80 81 82 83 84 84 84 84 84 84 84 85 86 86 86 87 87 87 86 86 86 86 86 86 85 85 85 85 85 86 86 86 87 87 88 89 91 92 93 93 94 94 95 95 95 96 96 97 97 98 98 99 101 102 104 105 107 108 109 110 111 112 113 114 116 117 119 120 122 123 124 126 127 128 128 129 129 129 130 130 132
71 71 73 77 80 82 81 81 82 83 83 84 84 85 85 86 86 86 86 87 87 87 87 87 86 86 85 85 85 86 86 86 86 86 87 87 87 88 89 90 91 92 93 94 95 95 95 96 96 96 96 96 97 97 98 99 100 102 103 105 106 108 109 110 111 112 113 114 115 117 118 120 121 123 124 125 126 127 127 128 128 128 129 130 131 132
73 73 76 80 82 83 82 82 82 83 83 84 85 86 87 88 88 88 87 87 87 88 87 87 87 86 86 86 86 86 87 87 87 88 88 89 90 90 91 92 93 94 95 95 95 96 96 96 96 96 96 96 97 98 99 100 102 103 105 106 108 109 110 111 112 113 114 115 116 118 119 121 122 123 124 125 126 127 127 127 127 128 129 130 131 132
76 77 79 81 83 83 82 82 82 83 84 85 85 86 87 89 89 89 88 88 88 88 88 87 87 87 87 87 87 88 88 88 89 89 90 91 92 92 93 94 94 95 95 96 96 96 97 97 96 96 97 97 98 99 100 101 103 105 106 108 109 110 111 111 112 113 115 116 117 119 120 121 122 123 124 125 126 126 126 127 127 128 129 130 131 132
79 80 81 82 82 83 82 82 83 83 84 85 86 87 88 88 89 89 89 89 89 89 89 89 88 89 89 89 89 89 90 90 91 92 92 93 94 94 94 94 95 95 95 96 96 97 97 97 97 97 98 98 99 100 102 103 105 106 107 109 109 110 111 112 113 114 116 117 118 119 121 122 123 123 124 125 125 125 126 126 127 128 129 130 131 133
80 81 81 82 82 82 82 82 82 82 83 84 84 85 86 86 87 87 87 88 89 90 90 89 90 90 90 91 91 91 92 92 93 93 94 95 95 95 94 94 95 95 96 96 97 97 98 98 98 98 99 100 100 102 103 104 106 107 108 109 110 111 111 113 114 115 116 118 119 120 121 122 123 123 124 124 124 124 125 125 126 128 129 131 132 133
81 81 81 81 82 82 82 82 81 81 81 81 81 81 81 82 83 84 84 85 87 88 89 89 90 90 91 92 93 93 93 93 94 94 95 95 95 95 95 94 95 96 97 97 97 98 98 99 99 99 100 101 102 103 104 105 106 107 108 109 110 111 112 114 115 116 117 118 119 120 121 122 122 123 123 123 123 124 124 125 126 128 130 131 132 133
84 83 82 82 82 82 83 83 82 81 80 80 79 79 79 79 79 80 81 82 84 85 87 88 89 90 91 92 94 94 94 94 94 95 95 95 95 95 95 95 95 97 97 98 98 98 99 99 100 101 101 102 103 104 105 106 107 108 109 110 111 112 113 114 115 116 117 118 119 120 121 121 122 122 122 122 122 123 124 126 127 129 130 132 132 133
88 87 86 86 86 86 86 85 84 84 83 81 80 79 78 78 78 79 79 81 82 84 86 87 88 89 90 91 93 94 94 94 94 95 95 95 95 96 96 96 96 97 98 98 99 99 99 100 100 101 102 103 103 104 105 106 108 109 110 111 112 113 113 114 115 116 117 118 119 119 120 120 120 120 120 121 122 123 125 126 128 129 131 131 132 133
91 91 91 91 91 91 91 90 88 87 86 84 83 82 81 80 80 80 80 81 83 84 86 87 88 89 89 90 92 94 94 94 94 94 95 95 96 96 97 97 97 97 98 98 99 99 100 100 101 101 102 103 104 105 106 107 108 109 110 111 112 112 113 114 115 116 117 117 118 118 118 118 118 119 119 121 122 124 126 127 128 129 131 131 132 132
92 94 94 95 95 95 95 94 93 92 90 89 88 87 86 85 84 84 84 85 86 87 87 88 88 89 90 91 92 93 94 93 93 94 94 95 96 97 97 97 97 98 98 99 99 99 100 100 101 101 102 103 105 106 107 108 109 110 110 111 111 112 113 114 115 115 116 116 116 116 116 116 117 118 119 121 123 125 126 127 129 130 130 131 131 130
93 95 96 97 98 98 97 97 97 96 95 94 93 91 91 90 89 89 89 89 89 89 89 89 90 90 91 91 92 93 93 93 93 93 94 95 96 97 98 98 97 98 98 99 99 100 100 100 101 102 103 104 106 107 108 108 109 109 110 110 111 112 113 113 114 114 114 114 113 114 114 115 116 118 120 122 124 125 127 128 128 129 130 130 130 128
93 95 96 97 98 98 98 98 98 97 97 96 95 94 94 93 93 92 92 92 92 91 91 91 91 92 92 92 92 93 93 93 93 93 94 95 96 97 98 98 98 98 98 99 99 100 100 101 102 103 104 105 106 107 107 108 108 108 109 110 110 111 112 112 112 112 111 111 111 112 113 115 117 120 122 123 125 126 127 127 128 129 129 129 128 126
93 94 96 96 96 96 96 96 96 96 96 95 95 95 95 95 94 94 94 94 93 93 93 93 93 93 93 93 93 93 93 93 93 93 94 94 95 97 98 98 97 97 98 99 100 100 101 102 103 104 105 106 106 106 106 107 107 108 108 109 109 110 110 110 110 109 109 110 111 112 114 117 119 121 123 124 125 125 126 127 128 128 128 127 126 124
93 94 94 95 95 94 94 94 93 93 93 93 93 94 94 95 95 95 94 94 94 93 93 93 93 93 93 93 93 93 93 94 93 93 93 94 95 96 97 97 97 97 99 100 101 101 102 103 104 104 104 104 105 105 105 105 106 106 107 107 108 108 108 108 108 108 109 110 112 114 116 119 121 122 123 124 124 125 126 127 127 127 126 125 123 122
94 94 94 94 94 93 93 92 92 92 92 92 92 93 93 94 94 94 94 94 94 93 93 93 93 93 93 93 93 93 94 95 94 94 94 94 95 95 96 96 96 97 99 100 101 102 102 102 103 103 103 103 103 103 103 103 104 104 105 105 105 106 106 107 107 108 110 112 114 116 118 120 121 122 123 123 124 125 125 126 126 126 124 122 121 120
96 96 95 95 95 94 94 93 93 93 93 92 92 92 93 93 93 93 93 93 93 93 93 93 93 93 94 94 93 94 95 96 96 95 95 95 95 96 96 96 96 97 98 100 101 101 101 100 101 101 100 100 101 101 101 102 102 103 103 104 105 105 106 107 108 110 112 114 116 118 119 120 121 121 122 122 123 124 125 125 125 124 122 120 119 119
99 98 98 97 97 97 96 96 95 95 94 94 93 93 93 92 92 92 93 93 93 93 93 93 94 94 95 94 95 95 96 97 97 96 96 95 95 95 96 97 97 97 98 98 99 99 98 98 98 98 98 98 99 99 100 101 101 102 103 104 105 106 108 109 110 112 114 115 117 119 120 120 120 121 121 122 123 124 124 124 123 121 119 118 117 117
101 101 100 100 100 99 99 98 98 97 97 96 95 95 94 93 93 92 93 94 94 94 94 94 95 95 95 96 96 96 97 97 97 96 96 95 95 96 97 97 97 97 97 97 97 97 97 96 96 97 97 98 99 100 100 102 103 104 105 106 107 108 109 110 112 113 115 117 118 119 119 119 119 120 121 122 123 123 123 122 120 118 116 116 115 115
103 103 103 103 102 102 101 101 100 100 99 99 98 97 97 96 95 95 95 96 96 95 95 96 96 96 96 96 97 97 97 96 96 96 96 95 96 97 97 97 97 97 96 96 96 96 96 96 96 97 98 99 100 101 102 103 104 105 106 107 108 109 110 112 113 115 116 117 118 118 118 118 119 119 120 121 122 122 121 120 117 115 114 114 113 112
105 104 104 104 104 104 103 103 103 102 102 101 101 100 100 99 98 98 98 98 97 96 96 97 97 97 97 97 97 97 97 97 97 97 96 96 96 97 97 96 96 96 95 95 95 95 96 97 97 98 99 100 101 103 104 105 106 107 108 109 109 110 111 113 114 115 116 117 117 117 117 117 118 119 120 120 121 120 119 117 114 113 112 112 111 109
106 106 106 105 105 105 105 105 104 104 104 103 102 102 101 101 100 100 100 99 98 98 98 98 98 98 98 98 97 97 98 99 99 98 97 96 96 96 96 95 95 95 95 94 94 95 96 97 99 100 101 102 103 104 105 106 107 108 109 109 110 111 112 114 114 115 116 116 116 116 116 117 118 118 119 119 119 118 116 113 112 110 110 109 108 105
108 108 107 107 107 107 106 106 106 105 105 104 104 103 103 102 102 101 101 100 100 99 99 99 99 100 99 99 98 98 99 99 99 98 97 96 95 96 95 95 94 95 95 95 94 95 96 98 100 101 102 103 104 105 106 107 108 108 109 110 111 112 113 114 115 115 115 115 115 115 116 116 117 118 118 117 117 115 112 110 109 108 108 106 104 102
109 109 109 109 108 108 108 107 107 106 106 105 104 104 103 103 102 102 102 101 101 101 101 100 100 100 100 99 99 99 99 99 98 98 96 95 95 95 95 94 94 95 95 95 96 96 97 99 101 103 104 105 106 106 107 108 109 109 110 110 111 112 114 114 114 114 114 114 114 114 115 116 116 116 116 115 114 111 109 107 107 106 105 103 101 98
110 110 110 110 109 109 109 108 108 107 106 105 105 104 104 103 103 102 102 102 102 102 101 101 100 100 100 99 99 98 98 98 97 97 96 94 94 94 95 95 95 95 96 97 98 99 100 101 103 104 105 106 107 107 108 108 109 110 110 111 112 112 113 113 113 113 113 113 113 114 114 114 115 114 114 113 110 108 106 105 104 104 102 100 97 93
110 110 110 110 110 110 109 109 108 107 106 106 105 104 104 103 103 102 102 102 102 102 101 101 100 99 99 98 98 97 97 97 97 96 95 95 94 95 95 95 96 97 97 99 100 101 102 103 104 105 106 107 107 108 108 109 109 110 111 111 111 112 112 112 112 111 111 112 112 113 113 113 113 112 111 109 107 104 103 103 102 101 99 96 93 88
110 110 110 110 110 110 109 109 108 107 106 106 105 104 103 103 102 102 102 102 101 101 101 100 100 99 98 98 97 97 97 97 97 97 96 96 96 96 96 97 98 98 99 100 101 102 103 104 105 106 106 107 107 108 109 109 110 110 110 111 111 111 111 111 110 110 110 110 111 111 112 111 111 110 108 106 103 101 101 101 100 98 96 93 88 84
110 110 110 109 109 109 109 108 107 107 106 105 104 103 102 102 101 101 101 101 101 100 100 100 99 99 99 98 98 98 98 98 98 98 97 97 97 98 98 99 99 100 100 101 102 103 104 104 105 106 107 107 107 108 109 109 110 110 110 110 110 110 110 109 109 109 109 109 109 110 110 109 108 107 105 102 100 99 99 98 97 95 92 88 84 79
109 109 109 109 108 108 108 107 107 106 105 104 103 102 101 100 100 100 100 100 100 100 99 99 99 99 99 99 99 98 99 98 98 98 98 98 98 99 99 100 100 101 101 102 102 103 104 105 105 106 107 107 108 108 108 109 109 109 109 109 109 109 108 108 108 108 107 107 108 108 107 107 106 103 100 98 97 97 97 96 94 91 87 84 79 75
109 109 109 108 108 107 107 106 106 105 103 102 101 100 99 99 99 99 99 99 99 99 99 99 99 99 99 99 99 99 99 99 99 99 99 99 99 99 100 100 101 101 102 102 103 103 104 105 106 106 107 107 108 108 108 108 108 108 108 108 108 107 107 106 106 106 106 106 106 106 105 104 102 100 97 95 95 95 95 93 90 87 83 79 75 71
107 107 107 107 106 106 105 105 104 103 102 101 100 99 99 98 98 98 98 98 99 99 99 100 100 100 100 100 100 100 99 99 99 99 99 99 100 100 101 101 102 102 102 103 104 104 105 105 106 106 107 107 107 107 107 107 107 107 106 106 106 106 105 105 104 104 104 104 104 103 103 101 98 95 94 93 93 93 92 89 86 83 79 75 72 68
106 106 106 105 105 104 104 103 103 102 101 101 100 100 99 99 98 99 99 99 99 100 100 101 101 101 101 101 101 101 100 100 100 100 100 101 101 101 102 102 102 103 103 104 104 105 105 105 106 106 106 106 106 106 106 106 106 105 105 104 103 103 103 102 102 102 102 102 102 101 99 97 94 92 91 92 92 91 88 85 82 79 75 72 68 64
104 104 104 104 103 103 103 102 102 102 101 101 100 100 100 99 99 99 100 100 101 101 102 102 102 102 102 102 102 102 102 102 102 102 102 102 102 103 103 103 103 103 103 104 104 105 105 105 105 105 105 105 105 105 105 105 104 104 103 102 101 101 100 100 101 100 100 100 99 98 96 93 91 90 90 90 90 88 85 82 79 75 72 69 65 62
103 103 103 103 103 102 102 102 102 101 101 101 100 100 100 100 100 100 101 101 102 103 104 104 104 103 103 103 104 104 103 103 103 103 103 103 103 103 103 103 103 103 104 103 104 105 105 105 105 104 104 104 104 103 103 103 102 102 100 99 98 98 98 98 99 99 98 98 96 94 92 89 88 88 89 88 87 84 81 78 75 72 69 65 62 59
103 103 103 102 102 102 102 102 102 101 101 100 100 100 100 100 101 101 102 103 104 105 105 105 105 105 105 105 105 105 104 104 104 104 104 104 104 103 103 103 103 103 103 103 103 104 104 104 104 104 103 103 102 101 101 100 99 99 98 97 96 95 95 96 97 96 96 95 93 90 88 87 87 87 87 86 84 81 78 75 72 69 66 62 59 57
102 102 102 102 102 102 102 102 102 102 101 101 100 100 101 101 102 103 104 105 106 107 107 107 107 107 106 106 106 105 105 105 105 105 104 104 103 103 103 103 103 103 103 103 103 103 103 102 102 102 102 101 100 99 98 97 96 96 95 95 94 94 94 94 94 94 93 91 89 87 85 85 85 86 85 83 81 78 75 73 70 66 63 59 57 55
103 103 103 103 103 103 103 103 102 102 102 102 102 102 103 104 105 106 107 108 109 109 109 109 109 108 108 107 107 106 105 105 104 104 104 103 103 103 103 102 102 102 102 102 102 102 101 101 100 100 100 99 98 97 96 95 93 93 92 92 92 92 92 92 92 91 90 88 86 84 84 84 84 84 83 81 78 75 73 70 67 63 60 57 55 53
104 104 104 104 104 104 104 104 104 104 103 104 104 105 106 107 108 109 110 111 111 111 111 111 110 109 108 108 107 106 105 104 104 103 103 103 102 102 102 102 102 102 101 101 100 100 100 99 99 98 97 96 95 94 93 92 91 90 90 90 90 90 90 90 90 88 86 84 83 82 82 83 83 82 80 78 76 73 70 67 64 60 57 55 53 51
105 105 106 106 105 106 106 106 106 106 107 107 108 109 110 111 111 112 113 113 113 112 111 111 110 109 108 107 107 106 105 104 103 103 102 102 101 101 101 101 101 100 100 99 99 98 98 97 96 95 94 92 91 91 90 89 89 88 88 88 88 88 88 88 87 85 83 81 81 81 81 81 81 80 78 76 74 71 68 65 61 58 55 52 51 49
105 106 107 107 108 108 108 109 109 110 110 111 112 113 113 114 114 114 113 113 112 111 110 109 109 108 107 107 106 105 104 103 103 102 101 101 101 100 100 100 99 99 98 97 97 97 96 95 94 93 91 89 88 87 87 87 86 86 86 86 86 86 86 85 83 82 80 80 80 80 80 80 79 78 76 74 72 69 65 62 58 55 52 50 49 48
104 105 106 107 108 109 110 111 111 112 113 114 114 114 114 114 113 112 111 110 109 108 108 107 107 107 106 106 105 104 103 103 102 101 101 100 100 99 98 98 97 96 96 95 95 94 93 92 91 90 89 87 85 84 84 84 84 84 85 84 84 84 83 82 80 79 79 79 79 80 79 79 77 75 74 72 69 66 63 59 56 53 50 49 47 46
102 103 104 105 107 108 109 110 111 112 112 113 113 113 112 111 110 109 108 107 106 106 105 105 105 105 104 104 104 103 102 102 101 100 100 99 98 97 96 96 95 94 93 93 92 91 90 89 88 87 86 85 83 82 81 81 82 83 83 83 82 81 80 79 78 78 78 78 78 78 78 78 76 74 72 70 67 64 60 57 53 51 48 47 46 44
Wind_Direction
249 250 251 252 254 255 256 257 258 259 260 261 262 263 264 265 266 267 268 269 270 271 272 273 274 275 276 277 278 279 280 281 281 282 283 283 284 285 286 286 287 288 289 290 290 291 292 292 293 294 295 296 296 297 298 298 299 300 300 301 302 302 303 303 304 304 305 305 306 306 307 307 308 308 309 309 310 310 311 311 311 312 312 313 313 314
249 251 252 253 254 255 257 258 259 260 261 262 262 263 264 265 266 267 268 269 270 271 272 273 274 275 276 277 278 278 279 280 281 282 282 283 284 285 285 286 287 288 289 289 290 291 291 292 293 294 295 295 296 297 298 298 299 300 301 301 302 302 303 303 304 304 305 305 306 306 307 308 308 309 309 310 310 311 311 311 312 312 313 313 314 315
250 251 252 254 255 256 257 258 259 260 261 262 263 264 264 265 266 267 268 269 270 271 272 273 274 275 276 277 277 278 279 280 281 281 282 283 284 284 285 286 287 288 288 289 290 291 291 292 293 294 295 295 296 297 298 299 299 300 301 301 302 302 303 303 304 304 305 305 306 307 307 308 308 309 309 310 310 311 311 311 312 312 313 314 315 316
251 252 253 254 255 256 258 259 260 261 262 263 264 264 265 266 267 268 269 270 271 272 273 273 274 275 276 277 277 278 279 280 280 281 282 283 283 284 285 286 287 288 288 289 290 291 291 292 293 294 295 296 296 297 298 299 299 300 301 301 302 302 303 303 304 304 305 306 306 307 308 308 309 309 310 310 310 311 311 312 312 313 314 315 316 317
253 253 254 255 256 258 258 260 261 262 263 264 265 265 266 267 268 269 270 271 272 273 273 274 275 276 276 277 278 278 279 280 280 281 282 283 283 284 285 286 287 288 288 289 290 291 292 292 293 294 295 296 297 297 298 299 300 300 301 301 302 302 303 303 304 305 305 306 307 307 308 309 309 309 310 310 311 311 311 312 313 314 314 316 317 318
255 255 256 257 258 259 260 261 261 262 263 264 265 266 267 268 268 269 270 271 272 273 273 274 275 276 277 277 278 278 279 279 280 281 282 283 283 284 285 286 287 288 289 289 290 291 292 293 294 294 295 296 297 298 298 299 300 301 301 301 302 302 303 304 304 305 306 306 307 308 308 309 309 310 310 310 311 311 312 313 314 314 315 316 317 319
257 258 258 259 260 260 261 261 262 263 264 265 266 266 267 268 269 270 270 271 272 272 273 274 275 276 277 277 278 278 279 280 280 281 282 283 284 285 286 287 288 288 289 290 290 291 292 293 294 295 296 296 297 298 299 300 300 301 301 302 302 303 303 304 304 305 306 307 307 308 308 309 309 310 310 310 311 312 312 313 314 315 316 317 319 320
258 259 261 261 261 261 261 261 262 262 263 264 265 266 267 268 269 269 270 270 271 271 272 273 274 275 276 277 278 279 279 280 281 282 283 284 285 285 286 287 288 288 289 290 291 291 292 293 294 295 296 297 297 298 299 300 300 301 301 302 302 303 303 304 305 306 306 307 308 308 308 309 309 310 310 311 311 312 313 314 315 316 317 318 320 321
257 259 261 262 262 261 261 261 261 262 263 263 264 265 266 267 268 268 269 269 270 271 271 272 273 274 275 276 277 279 280 281 282 283 283 284 285 286 287 287 288 289 289 290 291 291 292 293 294 295 296 297 298 299 299 300 300 301 301 302 302 303 304 304 305 306 307 307 308 308 308 309 309 310 310 311 312 313 314 315 316 317 318 319 321 322
255 257 259 260 260 260 260 261 261 262 262 263 263 264 265 266 267 267 268 269 269 270 271 272 273 274 275 276 277 278 280 281 282 283 283 284 285 286 287 287 288 289 289 290 291 292 292 293 294 295 296 297 298 299 299 300 301 301 301 302 302 303 304 305 305 306 307 307 308 308 308 309 309 310 311 312 313 314 315 316 317 318 319 321 322 323
253 255 257 258 258 259 259 260 261 262 262 263 263 263 264 264 265 266 267 268 268 269 270 271 272 273 274 275 277 278 279 280 281 282 283 284 285 286 287 287 288 289 289 290 291 292 293 294 294 295 296 297 298 299 299 300 301 301 301 302 303 303 304 305 306 306 307 307 308 308 308 309 310 311 312 313 314 315 316 317 318 319 321 322 323 324
250 253 255 256 257 259 260 260 261 262 262 263 263 263 264 264 264 265 266 267 268 269 270 271 271 272 274 275 276 277 278 279 281 282 283 284 285 286 287 287 288 289 290 290 291 292 293 294 295 296 296 297 298 299 299 300 300 301 301 302 303 304 305 305 306 306 307 307 308 308 309 310 311 312 313 314 315 316 317 318 319 321 322 323 323 324
249 251 253 255 257 259 260 261 262 262 263 263 263 264 264 264 264 265 265 266 267 268 269 270 271 272 273 274 275 276 278 279 280 282 283 284 285 286 287 287 288 289 290 291 291 292 293 294 295 296 297 297 298 299 299 300 300 301 302 302 303 304 305 305 306 306 307 307 308 309 310 311 312 313 314 315 316 317 318 319 320 322 322 323 323 323
248 250 252 255 257 259 260 261 262 263 263 263 264 264 264 265 265 265 266 266 267 268 269 270 271 272 273 274 275 276 278 279 280 282 283 284 285 286 287 288 288 289 290 291 292 292 293 294 295 296 297 297 298 299 299 300 301 301 302 303 304 304 305 305 306 306 307 308 309 310 311 312 313 314 315 316 317 318 319 320 321 322 322 323 323 323
247 249 251 253 256 257 259 260 261 262 263 263 264 264 265 265 266 266 267 267 268 268 269 270 271 272 273 274 276 277 278 279 281 282 283 284 285 286 287 288 289 289 290 291 291 292 293 294 295 296 296 297 298 299 299 300 301 301 302 303 304 304 305 305 306 306 307 308 310 311 312 313 314 315 316 317 318 319 320 321 321 322 322 322 322 323
244 246 249 251 253 255 256 258 259 260 261 262 263 265 266 266 267 267 268 268 268 269 270 270 271 272 274 275 276 277 279 280 281 282 283 284 285 286 287 288 289 289 290 290 291 292 293 294 295 296 296 297 298 299 299 300 301 301 302 303 303 304 305 305 306 307 308 310 311 312 313 314 315 316 317 318 319 320 320 321 321 321 322 322 322 323
242 244 245 247 249 251 253 254 256 257 259 261 262 264 266 267 268 268 269 269 269 270 270 271 272 273 274 275 276 278 279 280 281 282 283 284 285 286 287 287 288 289 289 290 291 292 293 294 295 296 296 297 298 299 299 300 301 301 302 303 303 304 305 306 307 309 310 311 312 313 314 315 316 317 318 318 319 319 320 320 321 321 321 322 322 323
242 243 244 245 247 249 250 252 254 255 257 259 261 263 265 267 268 269 269 270 270 271 271 272 273 274 275 276 277 278 279 280 281 282 283 284 285 285 286 287 288 288 289 290 291 292 293 294 295 296 297 297 298 299 299 300 301 302 302 303 304 305 306 307 309 310 311 312 313 314 315 316 316 317 318 318 319 319 319 320 320 320 321 321 322 323
244 244 245 246 247 249 250 252 253 255 257 259 261 263 265 267 268 269 270 270 271 271 272 273 273 274 275 276 277 278 279 280 281 282 283 284 285 285 286 286 287 288 289 290 291 292 293 294 295 296 296 297 298 299 300 300 301 302 303 304 305 306 308 309 310 311 312 313 314 315 315 316 317 317 317 318 318 318 319 319 320 320 321 321 322 323
245 246 247 248 249 250 252 253 254 256 258 260 262 264 266 267 268 269 270 270 271 272 272 273 274 275 276 277 277 278 279 280 281 282 283 283 284 284 285 286 287 288 289 289 290 291 292 293 295 296 296 297 298 299 300 301 302 303 304 305 306 307 309 310 311 312 313 314 314 315 316 316 316 316 317 317 317 318 319 319 320 320 321 321 322 323
246 247 248 249 251 252 253 255 256 258 259 261 262 264 265 267 268 269 269 270 271 272 273 274 275 275 276 277 278 278 279 280 281 282 282 283 283 284 284 285 286 287 288 289 290 291 292 293 295 296 297 297 298 299 300 301 302 303 305 306 307 308 309 311 312 313 313 314 315 315 315 315 315 316 316 316 317 318 318 319 319 320 321 322 322 323
247 248 249 251 252 253 255 256 257 259 260 261 263 264 265 266 267 268 269 270 271 272 273 274 275 275 276 277 278 278 279 280 280 281 282 282 283 283 284 285 286 287 288 289 290 291 293 294 295 296 297 298 299 300 301 302 303 304 306 307 308 309 310 311 312 313 314 314 314 314 314 314 314 315 316 316 317 317 318 319 319 320 321 322 322 323
247 249 250 251 253 254 255 257 258 259 260 261 262 263 264 264 265 267 268 270 271 272 273 274 275 275 276 276 277 278 278 279 279 280 281 281 282 283 284 285 286 287 288 290 291 292 293 294 295 296 297 298 299 300 302 303 304 305 307 308 309 310 311 312 313 313 313 313 313 313 313 313 314 315 315 316 317 317 318 318 319 320 321 322 323 323
247 248 250 251 253 254 255 256 257 258 259 260 261 262 263 264 265 266 268 269 271 272 273 273 274 275 275 276 276 277 277 278 278 279 280 280 281 283 284 286 287 288 289 291 292 293 294 295 296 297 298 299 300 302 303 304 305 307 308 309 310 311 311 312 312 312 312 312 312 312 312 313 314 314 315 316 316 317 318 318 319 320 321 322 322 322
246 248 249 251 252 253 254 255 256 257 258 259 260 261 262 264 265 266 268 269 270 271 272 272 273 273 274 275 275 276 276 277 277 278 279 280 281 283 285 286 288 289 291 292 293 294 295 296 297 298 299 300 302 303 304 305 306 307 308 309 310 310 311 311 311 311 311 311 311 311 312 313 314 314 315 316 316 317 318 319 320 321 322 322 322 322
246 247 248 250 251 252 253 254 255 256 257 258 260 261 262 264 265 266 267 268 269 270 271 271 271 272 273 273 274 275 275 276 277 278 279 280 282 283 285 287 289 290 292 293 294 295 296 297 298 299 300 301 302 304 305 306 306 307 308 308 309 309 309 309 309 309 310 310 311 311 312 313 314 314 315 316 316 317 318 319 320 321 322 322 322 321
246 247 249 250 251 252 252 253 254 256 257 258 259 260 262 263 265 266 267 268 268 269 270 270 271 271 272 273 273 274 276 277 278 279 280 282 283 284 286 287 289 290 291 293 294 295 296 297 298 299 300 301 302 303 304 305 306 306 307 307 308 308 308 308 309 309 309 310 311 311 312 313 314 314 315 315 316 317 318 319 320 321 322 322 321 321
248 248 249 250 251 252 253 254 255 256 257 258 259 260 261 262 264 265 266 267 268 269 269 270 271 271 272 273 274 275 277 278 279 280 282 283 284 285 287 288 289 290 291 292 293 294 295 296 297 299 300 300 301 302 303 304 305 305 306 306 307 307 307 308 308 309 309 310 311 312 312 313 313 314 315 315 316 317 318 319 321 321 322 321 321 321
248 249 250 251 252 253 254 255 255 256 257 258 259 260 261 262 263 264 265 267 268 269 270 270 271 272 273 274 275 276 277 278 280 281 282 284 285 286 287 288 289 290 291 292 292 293 294 295 296 297 298 299 300 301 302 303 304 305 305 306 306 307 307 308 308 309 309 310 311 312 312 313 313 314 315 316 316 317 319 320 321 321 321 321 321 321
249 250 251 252 253 253 254 255 256 257 258 259 260 261 262 263 264 265 266 267 268 269 270 271 272 273 274 275 276 277 278 279 280 282 283 284 285 286 287 288 289 290 290 291 292 293 294 295 296 297 298 299 300 301 302 303 304 304 305 306 306 306 307 307 308 309 310 310 311 312 312 313 313 314 315 316 317 318 319 320 321 321 321 320 321 322
249 250 251 252 253 254 255 256 257 258 259 260 261 262 263 264 265 266 267 268 269 270 271 272 273 274 275 276 277 278 279 280 281 282 283 284 285 286 287 288 289 289 290 291 292 292 293 294 295 296 297 298 299 300 302 302 303 304 305 305 306 306 307 307 308 309 310 310 311 311 312 312 313 314 315 316 317 318 319 320 321 321 320 320 321 323
250 250 251 252 253 254 255 256 257 259 260 261 262 263 264 265 266 267 268 269 270 271 272 273 274 275 276 276 277 278 279 281 282 283 283 284 285 286 287 287 288 289 290 290 291 292 293 293 295 296 297 298 299 300 301 302 303 304 304 305 306 306 307 307 308 309 310 310 311 311 312 312 313 314 315 316 317 319 320 320 321 321 320 321 322 324
250 251 252 253 254 255 256 257 258 259 260 261 262 263 264 265 266 267 268 269 270 271 272 273 274 275 276 277 278 279 280 281 282 282 283 284 285 286 286 287 288 288 289 290 290 291 292 293 294 295 297 298 299 300 301 302 303 303 304 305 305 306 307 307 308 309 309 310 310 311 312 312 313 314 315 316 318 319 320 321 321 320 321 322 323 324
251 252 252 253 254 255 256 257 258 259 260 261 263 264 265 266 267 268 269 270 271 271 272 273 275 276 277 278 278 279 280 281 281 282 283 283 284 285 286 286 287 288 288 289 290 291 292 293 294 295 297 298 299 300 301 301 302 303 304 304 305 306 307 308 308 309 309 310 310 311 312 312 313 314 315 317 318 319 320 321 321 321 321 323 324 325
252 252 253 254 254 255 256 257 259 260 261 262 263 264 265 266 267 268 269 270 271 271 272 273 274 275 276 277 278 279 280 280 281 281 282 283 284 284 285 286 286 287 288 289 290 291 292 293 294 295 297 298 299 300 300 301 302 303 303 304 305 306 307 307 308 309 309 310 310 311 312 313 313 315 316 317 319 320 321 321 321 321 322 324 325 326
252 253 254 254 255 256 257 258 259 260 261 262 263 264 265 266 267 268 268 269 270 271 272 273 274 275 275 276 277 278 279 279 280 281 282 282 283 283 284 285 286 287 288 289 290 291 292 293 294 295 297 298 299 300 300 301 302 303 304 304 305 306 307 307 308 308 309 309 310 311 312 313 314 315 316 318 319 321 321 321 321 322 323 324 325 326
253 254 255 255 256 257 258 259 259 260 261 262 263 264 265 266 266 267 268 269 270 271 272 272 273 274 275 276 276 277 278 279 279 280 281 281 282 283 284 284 285 286 287 289 290 291 292 293 295 296 297 298 299 300 300 301 302 303 304 304 305 306 307 307 308 308 309 309 310 311 312 313 314 315 317 319 320 321 321 321 322 323 324 325 326 327
255 255 256 257 257 258 259 259 260 261 262 262 263 264 265 265 266 267 268 269 270 270 271 272 273 273 274 275 276 276 277 278 278 279 280 281 282 282 283 284 285 286 288 289 290 291 292 294 295 296 297 298 298 299 300 301 302 303 304 304 305 306 306 307 307 308 309 309 310 311 312 313 314 316 318 320 321 322 321 321 322 324 325 326 327 328
256 256 257 258 258 259 259 260 261 261 262 263 263 264 264 265 266 267 267 268 269 270 270 271 272 273 274 275 275 276 276 277 278 279 279 280 281 282 283 284 285 287 288 289 290 291 293 294 295 296 297 298 298 299 300 301 302 303 304 304 305 306 306 307 307 308 309 309 310 311 312 313 315 317 319 321 322 322 321 322 323 325 326 327 328 329
256 257 257 258 258 259 260 260 261 262 262 262 263 263 264 264 265 266 267 268 268 269 270 271 272 273 273 274 275 276 276 277 278 278 279 280 281 282 283 284 286 287 288 289 290 292 293 294 295 296 297 298 298 299 300 301 302 303 304 304 305 306 306 307 307 308 308 309 310 311 312 314 316 318 321 322 322 322 322 323 325 326 327 328 329 331
256 256 257 258 258 259 259 260 261 261 262 262 262 262 263 264 264 265 266 267 268 269 270 271 271 272 273 274 274 275 276 277 277 278 279 280 281 282 284 285 286 287 288 289 291 292 293 294 295 296 297 297 298 299 300 301 302 303 304 304 305 305 306 306 307 307 308 309 310 311 313 315 317 320 322 322 322 322 323 324 326 327 328 329 330 331
255 256 257 257 258 259 259 260 260 261 261 261 262 262 262 263 264 264 265 266 267 268 269 270 271 272 273 274 274 275 276 277 278 279 280 281 282 283 284 285 286 287 288 289 291 292 293 294 295 296 297 298 298 299 300 301 302 303 304 304 305 305 305 306 306 307 308 309 310 312 314 316 320 322 323 322 322 322 324 326 327 328 329 330 331 332
255 256 257 257 258 258 259 259 260 260 260 261 261 261 262 262 263 264 265 266 267 268 270 271 272 272 273 274 274 275 276 277 278 279 280 281 282 283 284 285 286 287 288 290 291 292 293 294 295 296 297 298 299 300 300 301 302 303 303 304 304 304 305 305 306 307 308 309 311 313 315 319 321 323 323 322 322 323 325 327 328 329 329 330 331 333
255 255 256 257 257 258 258 258 259 259 259 259 260 260 261 262 263 264 265 266 267 268 270 271 272 272 273 273 274 275 276 277 278 279 280 281 282 283 284 285 286 287 288 290 291 292 293 294 295 296 297 298 299 300 300 301 302 302 303 303 303 304 304 305 306 307 308 310 312 314 318 321 323 323 322 322 323 325 327 328 329 329 330 331 332 333
255 255 255 256 256 257 257 257 257 258 258 258 259 259 260 261 262 263 265 266 267 268 269 270 271 272 272 273 274 275 276 277 278 279 280 281 282 283 284 285 286 288 289 290 291 292 293 294 295 296 297 298 299 299 300 301 301 302 302 302 303 303 304 305 306 307 309 311 313 317 320 322 323 323 323 323 325 327 328 329 329 330 330 331 332 334
254 254 254 255 255 255 256 256 256 257 257 257 258 259 260 261 262 264 265 266 267 268 269 270 270 271 272 273 274 275 276 277 278 279 280 281 282 283 284 285 287 288 289 290 291 292 293 294 295 296 297 298 298 299 300 300 300 301 301 302 302 303 304 305 306 308 310 313 316 319 322 323 323 323 323 325 326 328 329 329 330 330 331 331 333 334
252 253 253 254 254 254 255 255 255 255 256 256 257 258 260 261 262 264 265 266 267 268 268 269 270 270 271 272 273 275 276 277 278 279 280 281 283 284 285 286 287 288 289 290 291 292 292 293 294 296 296 297 298 298 299 299 300 300 301 301 302 303 304 305 307 309 312 315 318 321 323 324 324 324 325 326 328 329 329 330 330 330 331 332 333 335
251 251 252 252 253 253 253 254 254 254 255 256 257 258 260 261 263 264 265 266 266 267 268 268 269 269 270 271 273 274 275 277 278 279 280 282 283 284 285 286 287 288 289 290 290 291 292 293 294 295 296 297 297 298 298 298 299 300 300 301 302 303 305 306 308 311 314 317 320 322 323 324 324 325 326 328 329 329 330 330 330 330 331 332 334 335
250 251 251 251 252 252 253 253 254 254 255 256 257 259 260 261 263 264 265 265 266 266 267 267 268 269 270 271 272 274 275 276 278 279 280 281 283 284 285 286 287 288 288 289 290 291 292 293 294 294 295 296 296 297 297 298 298 299 300 301 303 304 306 308 310 313 317 320 322 323 324 324 325 326 327 329 330 330 330 330 330 330 331 332 334 335
250 251 251 251 252 252 252 253 254 254 255 256 257 259 260 261 262 263 264 264 265 265 266 267 267 268 269 271 272 273 275 276 278 279 280 281 282 284 285 285 286 287 288 289 290 291 291 292 293 294 294 295 295 296 297 297 298 299 300 302 303 305 307 310 312 316 319 321 323 324 325 325 326 327 328 329 330 330 330 330 330 330 331 333 334 335
251 251 251 251 252 252 253 253 254 254 255 256 257 258 259 260 261 262 263 264 264 265 266 266 267 268 269 270 272 273 275 276 277 279 280 281 282 283 284 285 285 286 287 288 289 290 291 292 292 293 293 294 295 296 297 298 299 300 301 302 304 306 309 312 315 318 320 322 324 325 326 326 327 328 329 330 330 330 329 330 330 330 331 333 334 335
Height
10624 10625 10625 10626 10626 10625 10625 10626 10626 10626 10625 10626 10626 10627 10627 10627 10627 10627 10627 10627 10627 10627 10627 10627 10626 10626 10626 10625 10624 10623 10622 10621 10620 10619 10618 10616 10616 10614 10613 10612 10611 10610 10609 10607 10606 10604 10602 10601 10599 10598 10596 10594 10592 10589 10587 10584 10582 10579 10577 10574 10571 10568 10564 10561 10558 10554 10551 10548 10544 10541 10537 10533 10529 10526 10521 10517 10512 10508 10503 10498 10493 10487 10482 10476 10471 10465
10621 10621 10621 10622 10622 10622 10621 10622 10622 10622 10621 10621 10622 10623 10622 10622 10622 10623 10623 10623 10623 10623 10623 10623 10623 10622 10621 10621 10620 10619 10618 10617 10616 10614 10613 10612 10611 10610 10609 10608 10607 10606 10604 10603 10601 10599 10598 10596 10595 10593 10591 10589 10588 10585 10583 10580 10578 10575 10572 10569 10566 10563 10559 10556 10553 10549 10546 10543 10539 10536 10532 10528 10524 10520 10516 10511 10506 10501 10496 10491 10486 10481 10476 10470 10464 10459
10616 10617 10618 10618 10618 10618 10618 10618 10618 10618 10618 10618 10618 10618 10618 10618 10618 10618 10618 10618 10619 10619 10619 10618 10618 10618 10617 10616 10615 10614 10613 10612 10611 10610 10609 10608 10607 10606 10604 10604 10603 10601 10599 10598 10596 10595 10594 10592 10591 10589 10587 10585 10583 10580 10578 10576 10573 10570 10568 10564 10561 10558 10554 10551 10548 10544 10541 10538 10534 10531 10527 10523 10519 10514 10510 10505 10501 10496 10491 10486 10480 10475 10469 10464 10459 10453
10612 10613 10613 10614 10614 10614 10614 10614 10614 10614 10614 10614 10613 10613 10613 10613 10613 10613 10614 10614 10614 10614 10614 10614 10614 10613 10613 10611 10611 10609 10609 10608 10607 10606 10604 10603 10603 10601 10600 10599 10598 10597 10595 10594 10592 10591 10589 10588 10586 10584 10583 10581 10578 10576 10573 10571 10568 10566 10563 10559 10556 10553 10549 10546 10543 10539 10536 10533 10529 10526 10522 10518 10513 10509 10504 10499 10495 10490 10485 10479 10474 10469 10464 10458 10453 10447
10608 10608 10608 10609 10610 10610 10610 10610 10610 10609 10609 10609 10609 10608 10608 10609 10609 10609 10609 10610 10610 10609 10609 10609 10609 10608 10608 10606 10606 10604 10604 10603 10602 10601 10600 10599 10598 10597 10596 10595 10594 10593 10591 10589 10588 10586 10584 10583 10581 10580 10578 10576 10574 10571 10569 10566 10564 10561 10558 10554 10551 10548 10544 10541 10538 10534 10531 10528 10524 10521 10516 10513 10508 10503 10499 10494 10489 10484 10479 10474 10468 10463 10458 10453 10447 10441
10603 10603 10604 10605 10606 10605 10605 10606 10605 10605 10604 10604 10604 10604 10604 10604 10605 10605 10606 10606 10606 10605 10604 10604 10604 10604 10603 10601 10601 10599 10599 10598 10598 10596 10596 10594 10594 10593 10592 10591 10589 10588 10586 10584 10583 10581 10580 10579 10577 10575 10573 10571 10569 10567 10564 10562 10559 10556 10553 10549 10546 10543 10539 10536 10533 10530 10526 10523 10519 10516 10511 10507 10503 10498 10493 10488 10483 10478 10473 10468 10463 10458 10452 10446 10441 10435
10598 10599 10600 10601 10601 10601 10601 10601 10601 10601 10601 10600 10600 10600 10600 10600 10601 10601 10601 10601 10601 10600 10600 10600 10599 10599 10598 10596 10595 10594 10594 10593 10593 10593 10592 10591 10590 10589 10588 10586 10585 10583 10581 10580 10578 10577 10576 10574 10573 10571 10569 10566 10564 10562 10559 10557 10554 10551 10548 10544 10541 10538 10535 10531 10528 10525 10522 10518 10514 10510 10506 10502 10497 10493 10488 10483 10478 10473 10468 10463 10458 10452 10447 10441 10435 10429
10595 10595 10596 10597 10596 10595 10595 10595 10595 10596 10596 10596 10596 10596 10596 10596 10596 10596 10596 10596 10596 10596 10596 10595 10595 10594 10593 10592 10591 10590 10589 10589 10589 10588 10588 10587 10586 10584 10583 10582 10580 10579 10577 10575 10574 10573 10571 10569 10568 10566 10564 10562 10560 10558 10555 10552 10549 10546 10543 10539 10536 10533 10530 10527 10524 10521 10517 10513 10509 10505 10501 10496 10492 10488 10483 10478 10473 10468 10463 10458 10453 10447 10441 10436 10429 10423
10593 10593 10593 10592 10591 10589 10589 10589 10590 10591 10592 10592 10592 10592 10591 10591 10591 10591 10591 10591 10591 10591 10591 10591 10590 10589 10589 10588 10587 10586 10586 10585 10584 10584 10583 10583 10581 10580 10579 10577 10576 10574 10572 10571 10569 10568 10566 10565 10563 10562 10559 10558 10555 10553 10550 10548 10544 10541 10538 10534 10531 10528 10525 10522 10519 10516 10512 10508 10504 10500 10496 10491 10487 10482 10478 10473 10468 10463 10458 10452 10447 10441 10436 10430 10424 10418
10591 10591 10589 10587 10584 10583 10583 10583 10584 10586 10588 10588 10588 10588 10588 10587 10586 10586 10586 10586 10586 10586 10586 10586 10586 10585 10584 10584 10584 10583 10582 10581 10581 10580 10579 10578 10577 10576 10574 10573 10571 10569 10567 10566 10564 10563 10562 10561 10559 10558 10556 10553 10551 10548 10546 10543 10539 10536 10533 10529 10526 10523 10520 10517 10514 10511 10507 10503 10499 10494 10491 10486 10481 10477 10472 10468 10463 10457 10452 10447 10441 10436 10430 10424 10418 10411
10588 10587 10584 10581 10578 10577 10578 10579 10580 10581 10583 10583 10583 10583 10583 10583 10583 10582 10582 10581 10581 10581 10582 10582 10582 10582 10581 10580 10579 10579 10578 10578 10576 10575 10574 10574 10573 10571 10569 10568 10566 10564 10563 10561 10559 10558 10557 10556 10554 10553 10551 10549 10546 10544 10541 10538 10534 10531 10528 10525 10522 10519 10516 10513 10509 10506 10502 10498 10494 10489 10485 10481 10476 10471 10467 10462 10457 10452 10447 10442 10436 10431 10424 10418 10412 10406
10583 10582 10579 10574 10572 10572 10574 10575 10576 10577 10578 10578 10578 10578 10578 10578 10578 10578 10578 10577 10577 10577 10578 10578 10578 10578 10578 10576 10575 10574 10574 10573 10572 10571 10570 10569 10568 10566 10564 10563 10561 10559 10558 10556 10554 10554 10553 10551 10550 10549 10547 10544 10542 10539 10536 10533 10529 10526 10523 10520 10517 10514 10511 10508 10504 10500 10496 10493 10488 10484 10480 10475 10471 10466 10461 10456 10451 10446 10441 10436 10431 10425 10419 10413 10407 10401
10578 10576 10573 10569 10568 10569 10570 10571 10572 10573 10573 10573 10573 10573 10573 10573 10573 10574 10574 10573 10573 10573 10574 10574 10573 10573 10573 10573 10571 10571 10569 10569 10568 10566 10566 10564 10563 10561 10560 10558 10556 10554 10553 10551 10550 10549 10548 10547 10546 10544 10542 10540 10537 10534 10531 10528 10524 10521 10518 10515 10512 10509 10506 10503 10499 10495 10491 10488 10483 10479 10474 10470 10466 10461 10456 10451 10446 10441 10436 10431 10425 10419 10413 10408 10402 10396
10573 10571 10569 10567 10566 10566 10567 10567 10568 10568 10568 10568 10568 10568 10568 10568 10569 10569 10570 10569 10569 10569 10570 10570 10569 10568 10568 10568 10567 10566 10566 10564 10563 10562 10561 10559 10558 10557 10556 10553 10551 10550 10549 10547 10545 10544 10543 10543 10541 10539 10538 10535 10533 10529 10526 10523 10519 10516 10513 10510 10508 10504 10501 10498 10494 10490 10486 10482 10478 10473 10469 10464 10460 10455 10451 10446 10441 10436 10430 10425 10419 10414 10409 10403 10398 10392
10567 10566 10566 10564 10563 10563 10563 10563 10563 10563 10563 10563 10563 10563 10564 10564 10565 10566 10566 10566 10565 10565 10566 10565 10564 10563 10563 10563 10562 10562 10561 10560 10559 10557 10556 10554 10553 10552 10551 10549 10547 10545 10544 10543 10541 10539 10538 10538 10537 10535 10533 10530 10528 10524 10521 10518 10515 10512 10509 10506 10503 10499 10496 10493 10489 10484 10481 10477 10473 10468 10464 10459 10454 10450 10445 10440 10435 10430 10424 10419 10414 10409 10404 10399 10393 10388
10561 10562 10561 10560 10559 10559 10558 10558 10558 10558 10558 10558 10559 10559 10560 10561 10561 10561 10563 10562 10561 10561 10561 10561 10559 10559 10558 10557 10558 10558 10557 10555 10554 10553 10551 10549 10548 10548 10547 10545 10543 10540 10539 10538 10536 10535 10534 10533 10532 10530 10528 10525 10523 10519 10516 10513 10510 10507 10504 10501 10498 10494 10491 10487 10483 10479 10476 10471 10467 10463 10458 10453 10449 10444 10439 10434 10429 10425 10420 10415 10411 10406 10400 10395 10389 10384
10556 10556 10555 10554 10554 10553 10552 10553 10553 10553 10553 10554 10554 10556 10556 10557 10557 10558 10558 10558 10558 10557 10556 10556 10556 10555 10553 10552 10552 10552 10553 10551 10549 10548 10546 10545 10544 10543 10543 10541 10538 10536 10534 10533 10533 10531 10530 10528 10526 10524 10523 10520 10518 10514 10511 10509 10506 10503 10499 10496 10493 10489 10486 10482 10478 10474 10470 10466 10461 10457 10453 10448 10443 10439 10434 10429 10425 10420 10416 10411 10406 10401 10396 10391 10385 10379
10551 10550 10549 10549 10548 10547 10547 10547 10548 10548 10549 10550 10551 10552 10553 10553 10554 10554 10554 10554 10554 10553 10552 10552 10552 10551 10550 10548 10546 10546 10548 10548 10545 10543 10542 10541 10539 10538 10538 10536 10534 10532 10530 10529 10528 10527 10526 10524 10522 10520 10518 10515 10512 10509 10506 10503 10500 10498 10494 10491 10488 10484 10480 10476 10473 10469 10464 10461 10456 10451 10447 10443 10438 10434 10429 10425 10421 10416 10412 10408 10403 10398 10392 10387 10381 10376
10547 10546 10546 10546 10544 10543 10543 10544 10544 10545 10546 10547 10548 10548 10549 10549 10550 10551 10550 10550 10549 10549 10548 10548 10547 10546 10546 10544 10543 10542 10543 10543 10541 10539 10538 10536 10534 10533 10533 10531 10530 10528 10526 10526 10524 10523 10521 10519 10518 10515 10513 10510 10507 10504 10501 10498 10495 10492 10489 10486 10482 10479 10475 10471 10468 10464 10459 10455 10451 10446 10442 10438 10434 10429 10425 10421 10417 10413 10408 10404 10399 10393 10388 10383 10377 10371
10543 10543 10543 10542 10541 10541 10541 10541 10542 10543 10544 10544 10545 10546 10546 10546 10546 10546 10546 10546 10545 10544 10544 10544 10543 10542 10541 10541 10539 10538 10538 10539 10537 10535 10533 10531 10530 10528 10528 10527 10526 10523 10522 10521 10520 10519 10518 10516 10513 10511 10508 10505 10503 10499 10496 10493 10490 10487 10484 10481 10477 10474 10470 10466 10463 10459 10454 10451 10446 10442 10438 10434 10429 10426 10421 10417 10413 10409 10404 10399 10394 10389 10384 10379 10373 10368
10539 10538 10538 10538 10538 10539 10538 10538 10539 10541 10541 10542 10543 10543 10543 10543 10543 10542 10541 10541 10541 10540 10540 10540 10539 10538 10538 10537 10536 10534 10534 10534 10533 10530 10528 10527 10525 10523 10523 10523 10521 10519 10518 10516 10516 10515 10514 10511 10509 10506 10504 10501 10498 10494 10491 10488 10485 10482 10479 10476 10473 10469 10466 10462 10458 10454 10450 10446 10442 10438 10434 10430 10426 10422 10418 10414 10409 10405 10401 10396 10391 10386 10381 10375 10369 10363
10534 10533 10533 10534 10535 10536 10535 10536 10537 10538 10539 10539 10539 10539 10539 10539 10538 10538 10537 10537 10537 10536 10536 10535 10534 10534 10533 10533 10531 10530 10529 10529 10528 10526 10524 10523 10520 10518 10518 10518 10517 10515 10513 10512 10511 10510 10509 10507 10504 10502 10499 10496 10493 10490 10487 10484 10481 10478 10474 10471 10468 10464 10461 10457 10453 10449 10446 10442 10438 10434 10430 10426 10423 10418 10414 10410 10406 10401 10397 10392 10387 10382 10377 10371 10366 10359
10529 10529 10529 10530 10531 10532 10533 10533 10534 10534 10535 10536 10536 10535 10534 10534 10534 10534 10533 10533 10533 10533 10531 10531 10530 10529 10529 10528 10527 10525 10524 10524 10523 10522 10520 10518 10516 10513 10513 10513 10513 10511 10509 10508 10507 10506 10504 10502 10499 10498 10494 10491 10488 10485 10482 10479 10476 10473 10470 10466 10463 10459 10456 10453 10449 10446 10442 10438 10434 10431 10427 10423 10419 10414 10411 10406 10402 10398 10393 10388 10384 10379 10373 10368 10362 10356
10524 10525 10525 10526 10527 10528 10529 10529 10530 10530 10531 10531 10531 10530 10530 10530 10530 10529 10529 10529 10529 10528 10528 10526 10526 10525 10524 10523 10522 10521 10519 10519 10518 10517 10516 10514 10512 10510 10509 10509 10509 10507 10504 10503 10503 10502 10499 10497 10494 10492 10489 10486 10483 10480 10478 10474 10471 10468 10465 10462 10459 10456 10453 10449 10446 10442 10438 10434 10431 10427 10423 10419 10415 10411 10407 10403 10398 10394 10389 10384 10380 10375 10370 10364 10358 10352
10520 10521 10521 10522 10523 10523 10524 10525 10525 10525 10526 10526 10526 10526 10526 10526 10526 10525 10525 10524 10524 10523 10523 10522 10521 10520 10518 10518 10517 10516 10514 10513 10513 10513 10511 10510 10508 10507 10506 10506 10506 10503 10500 10498 10498 10497 10495 10492 10489 10487 10484 10481 10479 10476 10473 10470 10467 10464 10461 10458 10455 10452 10449 10446 10442 10439 10435 10431 10427 10423 10419 10416 10411 10408 10403 10399 10394 10390 10386 10381 10376 10371 10366 10361 10354 10348
10515 10516 10516 10517 10518 10518 10519 10519 10520 10520 10521 10521 10521 10521 10521 10521 10521 10521 10520 10519 10519 10518 10518 10517 10516 10514 10513 10513 10512 10510 10508 10508 10509 10509 10508 10508 10506 10504 10503 10503 10503 10501 10498 10494 10493 10493 10491 10488 10484 10482 10479 10477 10474 10471 10469 10466 10464 10461 10458 10455 10452 10449 10446 10442 10439 10435 10431 10427 10423 10419 10416 10412 10408 10404 10399 10395 10391 10386 10382 10378 10373 10368 10363 10357 10350 10343
10511 10511 10511 10512 10513 10513 10514 10514 10515 10515 10516 10516 10516 10516 10516 10516 10516 10515 10514 10513 10513 10513 10513 10512 10511 10509 10508 10508 10507 10506 10504 10504 10505 10505 10505 10505 10504 10501 10499 10499 10499 10498 10494 10492 10489 10488 10487 10484 10480 10478 10476 10473 10471 10468 10466 10463 10461 10458 10455 10452 10449 10446 10442 10439 10435 10431 10428 10424 10420 10416 10412 10408 10404 10400 10396 10391 10387 10383 10378 10374 10369 10364 10359 10353 10345 10338
10506 10507 10507 10507 10508 10508 10509 10509 10509 10510 10511 10511 10511 10511 10511 10511 10511 10509 10508 10508 10508 10508 10508 10507 10506 10505 10504 10503 10503 10502 10502 10503 10502 10501 10502 10502 10500 10498 10496 10495 10495 10494 10492 10489 10486 10484 10483 10481 10478 10474 10472 10469 10468 10465 10463 10460 10458 10455 10452 10449 10446 10442 10438 10434 10431 10427 10424 10420 10416 10413 10408 10404 10400 10396 10392 10388 10383 10379 10375 10371 10366 10361 10355 10348 10341 10334
10503 10503 10503 10503 10503 10504 10504 10504 10505 10505 10506 10506 10506 10506 10506 10506 10506 10504 10503 10503 10504 10504 10503 10502 10502 10501 10501 10499 10499 10499 10499 10499 10498 10498 10499 10498 10496 10493 10492 10492 10491 10489 10488 10486 10483 10480 10478 10476 10474 10472 10469 10466 10464 10462 10459 10457 10454 10451 10448 10445 10442 10438 10434 10431 10427 10424 10420 10416 10413 10409 10404 10401 10396 10393 10388 10384 10380 10376 10371 10368 10363 10358 10351 10344 10337 10331
10498 10498 10499 10499 10499 10499 10500 10500 10501 10501 10501 10501 10501 10501 10501 10501 10501 10501 10500 10500 10501 10501 10499 10498 10498 10498 10498 10497 10496 10496 10494 10494 10494 10495 10496 10494 10492 10489 10488 10488 10487 10485 10484 10483 10480 10476 10473 10471 10470 10469 10466 10463 10461 10458 10456 10453 10450 10448 10444 10441 10438 10434 10431 10427 10424 10420 10416 10413 10409 10405 10401 10397 10393 10389 10384 10381 10376 10373 10368 10364 10359 10353 10346 10339 10333 10328
10493 10494 10494 10494 10495 10496 10496 10496 10497 10497 10497 10498 10498 10498 10498 10498 10498 10498 10498 10497 10497 10496 10495 10494 10494 10493 10493 10494 10493 10492 10490 10489 10489 10491 10492 10491 10488 10486 10485 10485 10483 10481 10479 10479 10478 10474 10469 10466 10464 10463 10462 10460 10457 10454 10451 10449 10446 10443 10440 10437 10433 10430 10426 10424 10420 10417 10413 10409 10405 10401 10397 10393 10389 10385 10381 10377 10373 10369 10365 10361 10356 10349 10342 10336 10331 10326
10488 10489 10489 10490 10491 10491 10492 10492 10493 10493 10493 10493 10494 10494 10494 10494 10495 10495 10494 10494 10493 10493 10491 10491 10490 10489 10489 10489 10489 10488 10486 10485 10485 10486 10488 10487 10484 10482 10481 10481 10479 10477 10474 10474 10473 10471 10468 10463 10459 10458 10457 10455 10453 10450 10448 10444 10442 10439 10436 10433 10429 10426 10423 10419 10417 10413 10409 10405 10401 10398 10394 10389 10386 10382 10378 10374 10370 10366 10363 10358 10351 10344 10338 10333 10328 10322
10484 10484 10485 10486 10486 10487 10488 10488 10488 10489 10489 10489 10489 10490 10491 10491 10491 10491 10490 10489 10489 10488 10488 10487 10486 10486 10485 10485 10485 10484 10483 10482 10481 10482 10483 10483 10481 10478 10477 10477 10475 10473 10471 10469 10468 10466 10464 10461 10457 10454 10452 10450 10449 10446 10444 10441 10438 10435 10432 10429 10426 10423 10419 10416 10413 10409 10405 10401 10398 10394 10390 10386 10383 10379 10375 10371 10368 10364 10359 10354 10346 10339 10334 10329 10324 10319
10479 10480 10481 10481 10482 10483 10483 10484 10484 10484 10484 10485 10486 10486 10486 10487 10487 10486 10486 10485 10484 10484 10484 10484 10483 10482 10481 10481 10480 10479 10479 10478 10478 10478 10479 10479 10477 10474 10473 10472 10471 10469 10466 10464 10462 10460 10458 10456 10454 10451 10449 10446 10444 10442 10440 10438 10434 10431 10428 10425 10423 10419 10416 10413 10409 10405 10401 10398 10394 10390 10386 10383 10379 10375 10372 10368 10364 10361 10356 10349 10341 10335 10331 10326 10321 10316
10475 10476 10476 10477 10478 10478 10478 10479 10479 10480 10480 10481 10481 10482 10483 10483 10483 10482 10482 10481 10481 10480 10480 10479 10479 10478 10478 10477 10476 10475 10474 10473 10473 10474 10475 10474 10473 10471 10469 10467 10466 10464 10463 10459 10458 10456 10454 10451 10449 10447 10445 10443 10439 10436 10435 10433 10431 10428 10424 10421 10419 10416 10413 10409 10406 10402 10398 10393 10389 10386 10383 10379 10376 10372 10368 10365 10362 10357 10351 10344 10337 10332 10328 10323 10318 10313
10471 10471 10471 10473 10473 10474 10474 10474 10475 10475 10476 10476 10476 10477 10478 10478 10478 10478 10478 10477 10476 10476 10475 10474 10474 10474 10473 10473 10473 10471 10470 10469 10469 10469 10470 10469 10468 10467 10464 10462 10461 10459 10458 10456 10453 10451 10449 10447 10444 10443 10441 10439 10436 10433 10429 10428 10426 10424 10421 10418 10415 10412 10409 10405 10402 10398 10394 10390 10386 10383 10379 10376 10372 10369 10366 10363 10359 10353 10346 10339 10334 10329 10324 10319 10314 10309
10466 10466 10467 10468 10468 10469 10469 10469 10470 10471 10471 10471 10472 10473 10473 10473 10473 10473 10473 10473 10472 10471 10471 10470 10469 10469 10469 10469 10469 10468 10466 10466 10465 10465 10465 10464 10463 10462 10461 10458 10456 10454 10454 10451 10449 10446 10444 10443 10440 10438 10436 10434 10432 10429 10426 10424 10421 10419 10416 10414 10411 10409 10405 10401 10397 10394 10391 10386 10383 10379 10376 10373 10369 10366 10363 10359 10355 10349 10342 10336 10331 10327 10322 10316 10311 10307
10461 10461 10461 10463 10463 10464 10464 10464 10465 10466 10466 10467 10468 10468 10468 10468 10469 10469 10468 10468 10467 10466 10466 10464 10464 10464 10464 10464 10464 10463 10463 10462 10461 10461 10460 10459 10459 10458 10456 10454 10451 10449 10449 10448 10445 10443 10441 10438 10436 10434 10431 10429 10427 10425 10423 10421 10418 10415 10412 10409 10408 10404 10401 10398 10394 10390 10386 10383 10379 10376 10373 10369 10367 10364 10361 10356 10350 10344 10338 10333 10328 10324 10319 10313 10308 10304
10455 10456 10456 10457 10458 10459 10459 10459 10460 10461 10462 10463 10463 10463 10463 10464 10464 10464 10463 10462 10461 10461 10460 10459 10459 10459 10459 10459 10459 10458 10458 10457 10456 10456 10456 10454 10453 10453 10451 10449 10447 10445 10444 10443 10441 10439 10437 10434 10432 10430 10428 10425 10423 10420 10418 10416 10414 10412 10409 10406 10403 10399 10397 10394 10390 10386 10383 10379 10376 10373 10369 10366 10364 10361 10358 10352 10346 10339 10334 10329 10324 10320 10315 10310 10305 10301
10449 10450 10451 10451 10452 10453 10454 10454 10455 10456 10457 10458 10458 10458 10459 10459 10459 10458 10458 10457 10456 10455 10455 10454 10454 10454 10454 10454 10453 10453 10452 10451 10451 10451 10451 10449 10448 10447 10446 10444 10443 10441 10439 10438 10436 10434 10433 10430 10428 10426 10423 10422 10419 10417 10414 10413 10410 10408 10406 10403 10398 10394 10391 10389 10386 10382 10379 10376 10373 10370 10366 10363 10361 10358 10353 10348 10341 10336 10331 10326 10321 10316 10312 10308 10303 10299
10443 10444 10444 10445 10446 10448 10449 10449 10450 10451 10452 10453 10453 10453 10454 10454 10453 10453 10451 10451 10450 10449 10449 10449 10449 10449 10449 10449 10448 10448 10447 10447 10446 10446 10446 10444 10443 10443 10441 10440 10439 10438 10436 10434 10431 10429 10428 10426 10424 10421 10419 10417 10416 10413 10411 10409 10406 10404 10402 10399 10394 10391 10388 10385 10382 10379 10376 10372 10369 10366 10364 10361 10358 10354 10348 10343 10337 10332 10328 10324 10319 10313 10308 10304 10301 10297
10438 10438 10438 10439 10441 10442 10443 10444 10445 10446 10447 10448 10448 10449 10448 10448 10448 10447 10446 10445 10444 10444 10444 10444 10444 10444 10444 10443 10442 10442 10442 10442 10442 10441 10441 10439 10439 10438 10437 10436 10434 10433 10431 10429 10427 10425 10423 10421 10419 10418 10415 10413 10411 10409 10407 10404 10403 10401 10398 10395 10391 10388 10383 10380 10378 10376 10373 10369 10366 10364 10361 10358 10354 10349 10344 10338 10333 10328 10324 10320 10316 10311 10306 10301 10298 10295
10431 10431 10432 10434 10435 10436 10438 10439 10441 10441 10442 10443 10443 10443 10443 10443 10443 10442 10441 10440 10439 10439 10439 10439 10440 10440 10439 10438 10436 10436 10436 10437 10437 10436 10436 10434 10434 10433 10433 10431 10430 10428 10427 10425 10423 10420 10418 10416 10415 10413 10411 10409 10408 10406 10404 10401 10399 10396 10393 10391 10388 10384 10380 10376 10373 10371 10369 10366 10364 10361 10359 10355 10350 10345 10339 10334 10330 10326 10321 10316 10312 10308 10304 10300 10296 10293
10424 10426 10427 10428 10430 10431 10433 10435 10436 10437 10437 10438 10439 10438 10438 10438 10437 10436 10436 10435 10435 10434 10434 10434 10435 10434 10434 10433 10431 10431 10431 10431 10431 10431 10431 10431 10429 10429 10428 10427 10425 10424 10423 10421 10419 10416 10414 10411 10409 10408 10407 10406 10404 10403 10400 10397 10394 10392 10389 10386 10384 10381 10377 10373 10370 10368 10365 10363 10361 10358 10356 10351 10346 10341 10335 10330 10326 10323 10318 10313 10309 10304 10301 10298 10294 10292
10419 10420 10421 10423 10424 10426 10428 10429 10431 10431 10433 10434 10434 10433 10432 10432 10431 10431 10431 10431 10431 10430 10430 10430 10430 10429 10428 10427 10426 10427 10427 10427 10426 10426 10426 10426 10425 10424 10423 10423 10421 10419 10418 10416 10414 10412 10410 10408 10405 10404 10403 10402 10401 10399 10396 10394 10391 10388 10384 10382 10379 10376 10373 10371 10368 10366 10363 10359 10357 10354 10351 10347 10342 10337 10331 10326 10322 10318 10314 10311 10306 10302 10299 10296 10293 10290
10413 10414 10416 10417 10419 10421 10423 10424 10425 10426 10428 10428 10428 10428 10427 10426 10426 10426 10426 10426 10426 10426 10425 10425 10425 10424 10423 10422 10421 10422 10423 10422 10422 10421 10422 10421 10421 10419 10419 10418 10416 10415 10414 10411 10409 10408 10406 10404 10402 10401 10399 10398 10396 10394 10393 10390 10388 10384 10381 10378 10375 10373 10369 10367 10364 10363 10360 10357 10354 10350 10346 10343 10338 10333 10328 10323 10319 10315 10311 10308 10304 10300 10297 10294 10291 10289
10406 10408 10410 10411 10413 10415 10416 10418 10420 10421 10423 10423 10422 10421 10421 10421 10421 10422 10422 10422 10421 10421 10421 10420 10419 10419 10418 10417 10417 10418 10418 10418 10418 10417 10417 10416 10416 10415 10414 10413 10412 10411 10409 10407 10405 10403 10401 10400 10399 10398 10396 10394 10392 10389 10387 10386 10383 10381 10377 10374 10371 10369 10366 10363 10361 10359 10357 10354 10351 10347 10343 10338 10333 10328 10323 10319 10316 10312 10308 10305 10301 10298 10295 10292 10289 10288
10401 10403 10404 10406 10408 10409 10411 10412 10414 10415 10416 10416 10416 10416 10416 10416 10417 10417 10417 10416 10416 10416 10416 10415 10414 10413 10413 10413 10413 10414 10414 10414 10413 10413 10413 10412 10411 10410 10409 10408 10407 10406 10404 10402 10400 10399 10398 10396 10396 10394 10393 10391 10388 10386 10383 10381 10379 10376 10374 10371 10368 10366 10363 10360 10358 10356 10353 10350 10346 10343 10339 10334 10329 10324 10319 10316 10312 10309 10306 10302 10299 10296 10293 10291 10288 10286
10394 10397 10399 10400 10401 10403 10404 10406 10408 10409 10409 10410 10410 10410 10411 10411 10412 10413 10412 10411 10411 10411 10411 10409 10409 10409 10409 10409 10409 10409 10410 10410 10409 10409 10408 10408 10407 10406 10405 10404 10402 10401 10399 10397 10396 10394 10394 10393 10391 10390 10389 10388 10386 10383 10379 10376 10374 10373 10370 10368 10365 10363 10359 10357 10354 10352 10349 10346 10342 10338 10334 10329 10325 10321 10318 10313 10309 10306 10303 10299 10297 10294 10291 10289 10287 10284
10389 10391 10393 10394 10396 10398 10398 10399 10401 10402 10403 10403 10404 10405 10406 10406 10407 10407 10407 10406 10406 10406 10405 10404 10404 10404 10404 10404 10404 10405 10406 10406 10405 10404 10404 10403 10403 10402 10400 10399 10397 10396 10394 10392 10391 10390 10389 10388 10386 10385 10384 10384 10383 10379 10376 10373 10370 10368 10366 10364 10362 10359 10356 10353 10351 10348 10345 10341 10338 10333 10329 10324 10321 10317 10314 10310 10306 10303 10300 10298 10294 10292 10289 10288 10285 10283
10383 10384 10386 10388 10389 10391 10393 10393 10394 10396 10396 10398 10398 10399 10401 10401 10401 10401 10401 10401 10401 10400 10399 10399 10399 10400 10401 10401 10401 10401 10401 10401 10401 10401 10399 10399 10398 10397 10395 10394 10392 10391 10389 10388 10387 10386 10384 10383 10381 10379 10378 10378 10378 10376 10373 10369 10366 10364 10361 10359 10358 10356 10353 10350 10347 10344 10341 10338 10333 10329 10324 10320 10316 10313 10311 10308 10304 10301 10298 10295 10293 10290 10288 10286 10284 10281